Powrót do katalogu

COSMOS 1275 DEB

AktywnyPO
NORAD 42141·DEBRIS·🇷🇺 Russia

Wystrzelony Jun 4, 1981 z Plesetsk Cosmodrome

Loading…

Następne Przeloty (najbliższe 24 godziny)

TLE

NieaktualneSource: Space-Track

Epoka: Sep 1, 2026, 10:20 UTC

1 42141U 81053RD  26244.43117250  .00002486  00000-0  87041-3 0  9993
2 42141  82.7741 143.3987 0022878 141.5367 218.7458 14.34667925142966

Śledź COSMOS 1275 DEB w czasie rzeczywistym z AllMySat

Download on the App Store